GFSSE_sfc_rhum_000.txt.gz
RH
76 59 81 81 80 78 76 76 79 81 83 84 83 83 81 81 80 79 78 78 76 75 74 74 73 71 71 72 73 74 71 72 70 72 72 72 71 72 69 69 68 40 72
62 57 80 77 77 79 76 77 80 82 82 82 82 80 78 77 78 78 78 77 75 74 75 74 73 72 71 70 69 70 69 71 72 72 69 67 68 72 70 66 64 56 70
49 51 56 81 79 77 77 79 79 80 79 81 78 75 72 75 77 77 77 75 75 74 74 72 72 72 71 71 71 69 69 69 66 74 68 38 44 65 71 70 67 72 72
39 39 44 84 78 76 74 77 77 76 74 77 75 73 73 74 74 75 74 74 74 73 72 71 71 71 70 71 72 70 70 68 67 64 46 37 35 72 72 72 73 73 72
45 44 55 77 75 74 74 76 78 76 77 77 74 73 71 71 73 74 72 72 72 71 71 70 69 70 71 71 73 74 69 69 68 60 50 46 41 63 70 73 74 72 65
45 47 65 73 74 73 76 77 78 77 77 77 74 71 71 72 71 70 70 71 70 70 70 70 70 69 69 71 74 73 73 69 69 49 48 53 46 71 69 68 66 71 75
40 43 46 80 78 76 76 76 78 75 75 76 75 73 73 70 69 69 70 70 68 67 68 67 68 69 70 73 76 72 73 69 50 51 54 46 49 73 68 71 66 68 74
39 45 49 76 80 79 78 77 79 76 76 77 75 73 72 69 69 69 68 67 66 65 65 68 70 70 70 72 73 70 72 72 48 55 50 54 77 78 71 70 69 70 73
39 48 48 48 66 78 78 78 77 75 74 73 73 73 71 70 68 69 67 67 66 67 69 68 69 68 70 71 71 71 69 68 51 52 41 60 83 76 77 72 72 73 73
42 43 54 57 56 56 56 77 76 74 70 70 72 71 71 70 67 66 69 69 68 67 67 69 69 70 73 74 73 73 69 70 44 39 49 51 77 75 72 75 71 69 74
44 45 45 48 58 62 54 58 70 70 70 70 68 72 66 40 45 47 67 69 69 66 67 69 71 74 71 72 72 71 71 36 41 38 39 78 76 72 72 76 74 73 74
48 45 42 46 54 52 43 58 57 49 44 44 45 51 44 47 49 49 59 72 69 68 68 71 71 68 64 36 38 53 34 41 41 42 39 80 74 71 71 73 72 78 72
44 43 48 48 55 51 54 48 46 44 42 46 55 53 47 47 46 41 41 41 43 62 39 46 46 38 50 44 41 40 42 42 36 38 53 77 78 74 70 76 73 75 72
44 44 44 48 55 53 71 48 47 43 43 42 44 58 56 49 49 52 43 47 53 41 48 49 41 52 53 51 46 45 41 41 36 37 48 77 78 77 72 71 76 74 71
44 44 45 49 61 60 63 48 46 48 43 40 43 51 46 44 66 53 56 56 54 46 42 49 50 51 55 48 46 45 40 41 45 40 39 72 75 76 76 71 72 73 72
44 45 45 50 58 60 60 64 55 50 44 43 40 44 57 48 69 50 50 48 49 46 44 49 54 55 52 46 44 44 44 39 44 48 38 42 73 75 75 74 71 73 73
43 45 47 52 55 62 65 62 57 47 44 42 42 53 56 60 65 62 50 51 48 57 63 55 56 51 45 43 44 40 41 43 40 46 42 36 41 77 75 72 78 80 75
45 51 51 43 48 56 60 57 52 46 44 43 41 45 59 60 63 61 56 50 50 53 50 48 48 47 43 42 42 41 42 41 44 45 41 42 35 33 64 71 71 80 78
47 52 56 54 52 56 62 56 56 55 60 67 59 53 55 59 58 56 51 50 60 55 68 53 47 50 45 41 38 37 41 40 42 32 44 45 44 39 33 74 71 75 72
46 52 57 53 60 62 76 77 60 59 52 48 48 59 59 66 59 65 59 58 58 69 51 49 62 47 51 45 39 37 43 40 40 38 37 32 40 42 41 53 47 50 70
46 54 59 62 65 63 66 53 51 47 49 54 45 62 62 58 60 63 52 60 59 59 56 58 52 54 42 44 43 36 42 44 42 38 33 29 34 33 41 47 47 47 55
47 54 61 64 67 68 53 60 53 58 43 48 46 58 57 58 63 60 64 60 63 46 62 59 60 46 42 44 47 44 38 44 42 34 34 29 33 28 34 42 49 57 52
46 54 59 66 67 69 66 59 61 64 62 53 55 59 61 63 64 67 66 58 62 54 38 56 55 58 42 52 60 48 40 38 37 38 43 32 35 30 33 37 43 46 49
43 47 57 64 68 66 70 62 74 55 49 41 45 41 49 61 61 63 65 64 60 43 55 53 50 54 60 47 43 48 58 58 41 38 35 34 33 31 38 30 32 38 42
40 44 50 63 70 69 70 71 60 67 45 42 43 58 66 63 64 56 66 61 59 48 59 60 59 63 48 47 42 44 53 42 52 42 38 34 33 33 33 32 32 30 36
37 41 46 62 73 69 68 70 72 65 62 46 53 50 46 44 52 63 64 62 57 51 59 55 60 61 60 56 46 52 40 39 38 39 37 40 40 36 33 34 35 30 31

GFSSE_sfc_rhum_003.txt.gz
RH
70 55 79 75 75 77 78 79 82 84 85 85 84 83 83 82 81 81 81 78 76 76 73 72 71 71 70 72 73 71 71 70 71 69 71 71 72 71 68 66 63 43 72
54 53 77 77 76 78 80 81 81 82 83 84 83 82 81 79 79 82 79 74 74 74 73 73 72 71 71 70 70 69 70 70 70 67 67 68 70 70 67 66 65 56 72
45 48 57 78 75 77 81 80 80 80 79 80 79 78 77 76 80 78 74 74 74 73 72 71 71 70 71 71 69 68 68 69 65 62 64 67 47 66 65 66 69 75 73
35 37 43 82 76 78 78 78 78 74 74 76 76 74 74 74 75 73 72 72 72 72 70 69 69 70 71 71 70 68 66 66 66 66 63 51 43 70 70 72 69 72 73
45 48 56 77 78 78 77 78 78 78 74 73 73 71 70 71 72 70 70 70 71 71 70 69 70 70 70 72 73 69 66 64 64 62 50 52 75 64 72 72 71 72 68
43 46 65 74 76 75 78 80 78 76 76 75 72 70 70 70 68 67 69 69 69 69 68 69 68 68 69 71 72 72 70 68 67 67 50 46 56 72 70 66 74 72 72
41 41 49 78 77 76 77 78 77 75 75 74 72 70 71 69 67 68 69 67 66 66 67 67 68 69 68 70 73 72 73 69 62 54 48 67 55 73 67 73 68 72 77
45 41 49 73 76 76 76 76 75 74 74 75 74 72 70 68 67 67 66 65 64 64 65 66 65 67 69 70 71 71 72 72 56 58 54 51 77 73 71 76 68 68 76
38 44 47 50 67 77 77 75 75 74 74 73 72 71 70 67 65 66 64 61 64 66 67 67 67 67 70 70 72 72 72 70 55 46 53 54 84 76 73 72 73 72 74
38 44 50 50 48 55 57 74 73 73 70 69 71 70 68 66 64 61 61 65 65 64 65 67 68 70 70 71 71 70 69 69 50 52 56 55 79 75 73 71 72 73 75
47 45 41 40 48 55 56 66 72 70 66 68 66 68 64 54 55 52 65 65 66 65 66 67 69 70 68 70 68 65 68 34 38 48 54 80 73 72 72 76 72 71 74
44 40 37 48 52 49 38 61 55 47 44 45 44 52 46 45 57 45 56 67 66 67 66 69 69 69 67 49 38 52 34 41 37 38 56 77 72 70 71 77 76 75 75
35 34 46 61 56 55 73 45 44 41 40 41 48 48 43 44 56 58 76 52 51 62 66 63 60 54 45 42 38 35 37 38 33 34 66 75 72 73 68 71 74 77 76
37 37 40 49 60 54 53 44 39 37 36 37 42 55 55 47 57 48 66 64 56 66 50 54 55 48 48 49 43 43 37 32 31 34 53 76 74 73 74 72 74 75 73
35 36 38 44 54 54 62 42 39 40 36 36 38 46 45 41 64 61 52 45 50 56 61 48 49 48 50 51 43 43 39 37 34 32 34 73 73 74 75 73 74 75 74
36 38 37 44 56 63 63 59 50 43 47 37 36 38 54 48 84 49 68 66 68 58 64 43 56 53 58 52 40 42 42 38 41 42 33 46 74 73 72 74 73 75 77
36 39 41 44 48 58 61 60 52 42 38 43 37 44 48 53 54 61 60 54 46 56 59 63 72 69 50 33 38 37 37 38 36 43 38 32 46 77 70 69 76 77 76
38 44 44 36 42 54 64 60 51 44 62 44 52 58 52 54 60 61 52 49 64 50 64 53 80 60 38 35 37 36 37 38 42 42 37 38 33 30 70 74 70 80 76
39 45 48 46 44 51 66 54 52 57 56 64 51 48 67 56 59 57 51 59 63 57 54 50 56 55 39 38 35 33 37 38 39 32 39 39 43 39 33 75 73 71 72
37 44 50 47 55 56 74 77 61 46 50 49 50 46 54 55 58 58 50 57 56 74 49 83 63 45 46 44 35 33 39 39 39 36 34 29 39 38 39 47 54 56 72
37 45 53 58 66 59 57 65 59 54 49 44 40 57 60 58 60 64 56 63 57 58 70 53 49 51 41 41 42 37 40 42 40 36 30 29 32 31 39 43 46 53 72
40 46 57 62 68 67 57 67 53 59 45 38 39 50 53 66 62 61 68 51 54 53 58 57 58 48 38 44 46 40 43 47 46 45 33 30 33 28 35 42 48 56 64
40 48 57 66 69 68 67 60 64 62 52 52 44 48 53 57 57 61 62 63 64 54 34 56 52 55 44 48 57 48 41 62 50 51 44 34 36 32 34 39 42 44 48
38 44 54 64 68 67 72 62 73 59 49 38 40 37 47 59 58 58 64 57 63 47 59 50 47 57 58 46 40 44 53 55 45 48 57 39 34 32 38 33 30 38 40
34 39 47 64 71 69 72 71 56 64 41 37 34 57 56 64 53 48 53 60 61 45 56 58 56 64 52 47 40 38 52 40 48 40 38 41 33 34 34 33 33 30 34
32 36 43 64 73 72 70 72 74 73 62 41 45 46 44 43 49 54 51 62 60 48 53 53 58 59 60 58 48 50 42 37 37 37 37 41 39 36 33 34 36 35 31

GFSSE_sfc_rhum_006.txt.gz
RH
87 66 79 75 77 79 81 83 83 85 85 84 85 85 84 84 84 83 81 81 80 79 78 75 73 71 71 72 72 71 72 72 70 70 70 71 71 69 68 63 63 59 71
60 63 80 78 76 80 83 84 85 85 85 84 85 84 83 83 84 82 80 80 79 78 76 74 72 72 71 70 71 71 70 68 69 68 72 68 68 68 67 64 68 68 71
54 61 66 80 79 80 82 83 84 83 82 83 82 82 82 82 81 80 79 78 77 76 72 72 72 72 71 69 69 68 68 67 64 61 62 68 62 66 68 68 71 73 73
47 49 55 82 80 80 81 82 81 79 80 80 80 80 81 80 79 77 75 74 73 74 71 71 71 71 71 70 68 67 66 64 64 64 67 58 48 68 71 69 72 73 72
46 51 64 81 81 80 80 81 79 78 78 79 79 77 78 78 76 75 72 71 71 71 71 70 70 69 70 71 70 68 64 63 65 66 66 76 66 67 71 70 71 70 70
44 51 72 80 78 80 80 81 79 79 78 78 76 76 76 75 72 70 70 68 68 68 68 69 69 69 69 72 71 72 69 67 68 85 69 70 67 72 72 71 71 71 72
51 52 59 80 80 80 80 80 78 77 77 78 76 75 73 71 69 70 67 66 66 67 67 67 66 68 68 70 71 71 72 70 71 76 74 79 73 76 70 70 72 72 74
44 49 60 77 80 80 81 81 79 77 76 76 75 72 71 68 68 69 65 64 64 65 66 68 66 68 69 68 70 72 72 71 62 65 66 70 80 75 74 66 70 76 73
44 50 60 62 72 78 80 79 78 75 75 74 72 72 70 67 67 67 65 62 64 65 66 67 65 66 68 68 71 71 71 72 75 83 75 84 83 75 73 71 69 73 74
43 48 57 62 61 69 68 78 74 74 72 72 72 70 69 66 66 67 67 69 65 63 65 67 66 66 66 69 70 68 69 70 65 94 90 75 83 75 72 71 75 73 73
46 52 48 50 63 74 68 68 74 71 69 70 69 70 71 69 69 60 69 70 64 66 66 67 66 66 67 71 72 71 69 56 52 70 75 82 78 73 72 72 71 73 75
47 49 59 54 59 60 48 74 73 61 57 62 60 70 66 84 75 60 63 67 67 70 64 68 69 67 69 58 64 70 49 53 57 62 71 82 76 71 70 76 74 74 76
45 40 45 55 62 58 69 64 59 56 55 57 66 70 66 64 81 91 94 95 86 76 94 69 66 73 57 56 56 51 51 50 48 57 72 78 71 70 72 83 78 76 75
42 49 53 57 65 77 70 63 57 52 58 51 57 68 74 67 80 96 95 94 83 94 84 77 72 62 62 60 55 54 52 47 43 50 82 79 73 71 72 71 76 85 76
35 46 55 63 74 76 75 64 56 60 47 52 61 66 61 72 85 88 78 69 72 68 72 75 70 69 71 65 58 54 52 55 51 51 70 79 74 70 73 77 76 78 80
38 39 47 60 69 75 72 75 73 64 59 56 57 63 69 74 81 74 78 74 75 70 74 71 74 75 72 64 64 52 52 53 54 56 54 80 79 76 72 76 75 80 75
37 41 49 55 60 67 72 72 70 66 47 62 61 72 68 73 80 76 81 75 81 72 72 77 77 78 69 56 56 53 52 53 56 56 56 52 70 80 77 75 76 80 77
39 50 50 37 55 66 71 74 65 58 69 72 68 67 67 70 71 77 80 88 89 77 80 83 83 75 74 60 62 60 59 54 54 57 54 52 60 55 78 76 78 78 77
43 54 54 53 54 65 72 70 69 68 74 74 65 74 76 89 73 77 78 88 81 72 74 82 82 79 69 66 54 54 57 61 55 42 52 53 57 60 63 78 79 80 74
43 53 58 54 64 72 74 83 77 71 73 74 75 72 76 77 70 81 78 75 74 79 82 82 80 71 71 69 46 49 59 61 61 56 51 44 52 54 57 69 80 76 80
43 53 61 64 72 70 74 70 70 69 77 69 65 72 71 71 74 77 74 78 74 83 80 75 70 73 71 70 69 68 68 59 59 60 51 52 49 49 57 66 69 88 86
43 54 65 68 74 73 69 74 70 70 62 65 64 73 72 72 78 78 84 84 82 84 82 78 74 76 72 72 72 76 84 74 63 55 56 49 50 52 54 56 69 73 78
44 55 63 72 74 75 73 74 83 85 82 76 67 69 70 71 77 80 80 80 83 72 75 79 75 72 76 79 67 76 83 86 82 66 62 56 59 61 61 61 57 62 63
42 50 63 71 75 76 77 76 78 69 72 66 69 64 68 70 71 71 78 79 82 77 82 80 72 76 79 78 79 66 70 72 80 85 73 59 58 53 59 58 56 58 55
38 48 56 72 77 77 78 77 74 73 64 61 58 75 80 83 75 74 77 79 82 76 81 76 77 79 80 78 76 73 76 76 73 72 76 70 67 63 63 59 56 56 58
36 45 53 72 79 77 79 79 80 77 72 62 67 70 68 70 70 73 69 80 81 76 81 76 77 78 79 80 79 78 75 76 70 72 72 68 69 66 57 62 63 64 57

GFSSE_sfc_rhum_009.txt.gz
RH
92 81 80 75 76 80 78 84 85 85 86 86 86 86 85 83 84 84 83 81 80 79 74 73 72 72 72 72 72 72 74 72 73 71 71 70 69 70 68 67 70 64 72
79 78 80 77 78 82 83 85 86 84 86 86 86 85 84 82 81 83 82 79 78 78 73 73 72 71 71 71 70 70 70 72 71 69 68 67 68 68 69 66 70 67 71
77 79 76 81 81 82 84 85 84 84 85 85 84 84 84 80 81 81 78 77 78 76 72 72 72 71 70 69 68 66 69 69 66 66 67 77 70 69 68 69 74 74 72
69 74 74 85 83 83 84 84 82 80 80 84 84 84 83 80 81 78 74 75 75 74 71 71 70 71 71 70 68 67 67 65 65 65 72 64 59 68 70 73 73 73 70
62 68 76 84 82 82 83 83 82 81 80 82 82 82 81 79 77 74 73 73 73 72 72 70 70 70 71 70 70 70 69 68 67 70 70 78 77 67 71 73 72 73 74
66 73 80 82 81 80 82 82 80 80 81 81 80 81 79 77 73 72 71 70 70 70 71 70 71 69 69 71 71 72 73 72 80 78 80 72 76 71 70 70 71 73 74
69 74 77 82 81 81 82 81 81 79 78 80 80 79 78 77 74 72 69 68 68 69 70 70 67 69 68 70 71 72 73 69 74 94 80 83 81 77 72 73 72 71 75
67 71 74 80 82 82 79 78 80 79 78 80 80 78 78 77 77 74 70 70 66 66 67 69 67 69 69 69 70 72 74 80 83 86 88 89 83 77 69 70 72 73 74
62 70 78 77 77 79 82 80 79 80 80 80 79 78 77 76 75 72 71 69 66 65 66 67 66 68 69 70 71 72 70 79 84 92 77 94 83 76 69 66 74 73 74
64 72 76 81 81 84 82 78 76 77 77 76 76 76 76 72 68 68 75 73 64 64 65 67 66 70 71 73 73 73 72 78 86 82 90 91 82 75 72 73 70 74 71
64 68 72 77 82 89 85 77 78 75 75 75 76 77 77 82 82 71 73 72 63 65 65 66 70 73 73 74 76 74 73 79 90 91 90 84 81 73 72 71 75 75 74
63 67 68 71 76 77 67 85 89 78 82 85 83 84 84 83 92 83 77 70 69 70 68 70 72 72 72 76 77 71 70 55 75 86 82 82 78 73 69 74 72 75 76
59 59 63 68 71 76 69 82 85 82 81 79 78 83 80 94 90 95 96 89 94 75 90 81 78 79 70 63 67 58 57 54 70 81 77 81 77 73 75 74 79 75 78
57 56 58 65 68 76 76 79 76 72 73 77 80 76 81 91 97 96 94 97 96 93 88 88 92 78 66 61 59 60 56 54 60 79 86 79 80 75 77 79 71 78 75
54 55 58 68 77 70 80 73 67 68 66 69 66 74 74 88 97 97 95 97 96 93 91 92 86 70 77 64 59 52 54 54 52 66 90 77 78 79 75 76 78 70 77
56 62 63 73 78 79 85 83 76 62 63 64 68 73 77 87 91 90 92 75 73 76 81 75 82 77 71 71 71 53 52 52 59 59 75 86 78 78 78 76 80 72 72
54 60 65 73 75 80 84 80 78 78 63 62 72 72 71 78 79 84 90 90 88 82 79 79 76 78 71 68 66 57 55 57 57 55 59 66 81 78 75 76 81 80 77
47 64 68 58 69 79 83 84 82 74 77 74 76 78 78 76 84 84 91 91 94 82 79 89 90 82 83 78 66 63 61 60 54 50 56 58 77 71 79 75 78 81 78
53 61 62 61 66 74 84 85 81 71 82 74 77 81 86 82 82 86 92 89 83 92 89 84 85 79 70 73 62 64 66 61 58 43 53 54 58 67 78 77 78 77 72
56 58 55 67 69 73 80 88 87 88 85 76 81 80 80 83 81 88 86 90 83 91 88 86 78 77 77 77 60 55 67 60 64 60 59 49 54 63 68 73 84 82 79
58 61 62 68 79 75 77 84 91 92 88 82 76 82 80 87 87 86 90 89 85 89 88 74 79 77 79 81 72 71 70 58 56 64 55 53 56 63 68 79 84 93 90
55 60 66 63 84 74 78 79 86 84 83 81 80 82 78 85 85 84 90 91 86 86 84 78 78 86 85 77 73 88 89 75 65 56 54 52 60 61 57 69 71 84 91
53 67 66 65 74 81 81 79 94 93 92 87 86 88 78 81 86 84 89 91 87 84 88 80 79 82 81 85 73 79 90 92 81 72 59 58 57 61 66 66 63 61 86
53 58 66 70 73 78 84 79 87 89 87 81 82 68 77 86 87 83 84 90 88 84 87 82 80 84 88 84 86 73 79 75 88 88 79 59 62 52 57 58 66 60 64
45 57 70 70 71 74 76 80 82 86 72 78 84 81 88 92 83 82 88 90 83 78 88 86 80 79 90 87 89 87 86 87 79 80 88 76 67 65 63 54 55 60 58
45 54 65 76 78 78 76 87 85 84 80 74 86 94 80 79 84 89 84 86 84 86 83 82 84 83 88 88 86 89 82 83 81 86 80 83 77 72 63 63 58 55 66

GFSSE_sfc_rhum_012.txt.gz
RH
93 85 78 74 75 79 82 82 84 86 86 87 86 83 81 81 82 82 81 77 76 75 74 73 73 73 73 75 75 76 73 74 71 71 69 68 71 71 71 72 73 68 70
84 81 78 77 76 82 84 83 85 86 85 85 84 82 79 79 79 80 79 76 75 74 73 73 72 72 72 72 73 71 73 75 74 70 67 67 69 67 68 72 70 68 70
81 81 79 82 80 82 86 84 84 82 82 85 84 81 78 78 78 78 76 75 75 73 72 73 72 71 70 70 70 69 70 67 68 70 68 79 74 70 70 72 72 71 75
78 84 80 84 83 82 84 84 83 80 80 84 83 81 78 78 77 75 75 74 74 73 72 71 71 72 71 70 69 68 67 67 66 65 77 71 61 70 72 72 74 71 72
78 81 82 83 84 82 82 82 83 81 80 82 80 77 76 76 75 74 74 73 73 73 72 71 70 70 71 70 71 75 71 68 72 74 74 80 81 69 73 73 72 72 74
77 78 80 82 80 80 82 81 79 79 78 81 80 76 75 75 73 72 72 71 71 71 70 70 70 68 70 72 72 74 72 84 90 83 82 78 79 71 70 72 72 72 75
82 77 78 81 83 82 82 80 79 77 76 80 80 75 74 74 72 70 69 70 69 69 68 67 67 69 69 71 72 72 85 90 92 90 92 85 82 77 72 72 71 73 71
80 79 78 79 80 82 78 77 78 76 76 79 79 76 75 75 74 71 69 68 67 67 68 67 68 71 72 71 71 80 80 85 84 94 91 90 85 76 72 73 72 74 74
76 81 79 75 72 76 81 77 77 76 76 76 76 77 78 74 73 69 68 67 66 66 68 68 68 70 71 72 70 73 78 76 85 90 84 92 83 72 69 72 75 75 74
77 82 88 87 79 84 83 76 77 78 76 76 75 74 74 71 69 67 76 72 65 64 66 68 67 70 72 72 74 69 74 72 84 82 94 88 84 74 68 73 76 75 77
78 85 88 90 94 96 92 79 78 77 77 76 76 75 81 86 84 77 74 72 66 66 65 66 68 71 74 74 75 72 70 93 87 87 84 84 85 74 72 72 73 75 74
85 83 85 88 90 92 76 87 92 84 88 91 90 89 91 91 94 84 79 63 67 69 67 70 71 69 72 81 78 64 57 79 83 84 81 85 80 75 68 76 76 75 77
78 78 81 83 86 88 82 94 97 93 93 94 91 90 91 94 92 94 95 87 89 80 88 83 79 79 74 71 65 55 60 78 90 90 80 78 80 75 67 74 72 76 77
75 75 76 78 81 85 82 89 90 90 88 91 88 87 93 98 94 94 92 96 92 96 87 93 89 78 77 64 61 60 56 68 86 83 86 78 78 78 73 76 76 75 77
71 68 71 75 79 78 83 85 88 84 80 79 82 86 92 94 96 94 93 94 93 95 96 94 90 78 75 68 70 60 54 56 70 84 90 78 77 81 77 73 69 75 75
64 63 68 74 74 73 80 87 83 77 76 79 70 83 83 91 94 96 94 90 93 94 85 84 85 73 77 73 71 71 54 59 62 72 86 88 76 81 80 76 77 67 74
57 58 66 72 73 76 74 82 77 70 66 70 68 78 77 85 90 91 96 95 96 96 92 84 81 81 75 75 67 62 58 62 56 62 70 85 82 76 79 79 78 74 70
56 62 63 60 74 74 76 85 84 81 79 68 77 84 81 81 85 93 95 93 91 89 87 90 92 86 74 71 75 68 66 63 56 52 63 73 84 75 78 78 83 81 76
59 65 67 64 73 78 85 86 85 78 82 83 86 84 88 86 89 93 94 91 88 92 90 86 88 84 66 76 68 70 72 66 60 54 61 60 67 81 83 77 77 79 71
59 66 69 68 72 76 83 91 90 88 86 87 87 87 90 88 87 91 91 89 89 93 92 91 82 82 80 82 66 61 73 69 68 66 60 58 75 70 74 76 89 84 79
58 67 70 71 72 77 85 89 97 93 91 91 89 80 82 86 88 87 93 94 92 95 89 84 84 79 79 87 72 80 83 68 67 66 59 68 71 79 82 84 90 94 89
63 66 69 70 72 73 74 74 86 96 92 87 85 87 83 86 88 88 93 95 93 94 86 82 80 88 89 86 77 93 88 76 65 60 62 63 66 73 77 79 88 90 95
61 66 66 74 74 74 75 82 96 95 94 94 91 92 88 85 86 90 92 95 94 93 90 82 82 85 80 88 81 83 95 94 85 72 63 64 61 71 76 74 73 82 96
55 59 62 71 79 76 79 78 79 79 84 76 88 86 90 78 85 87 90 90 91 92 88 83 82 87 86 82 92 79 85 84 89 91 77 70 65 56 61 68 70 70 94
48 59 59 64 83 80 80 76 79 81 76 89 89 88 88 95 88 85 90 92 89 90 87 84 88 86 94 84 90 90 90 93 82 89 89 78 77 69 66 60 72 70 77
44 54 61 66 69 82 80 78 80 79 82 83 93 93 92 91 91 87 87 93 86 85 90 89 84 83 94 93 93 92 86 80 84 89 88 87 78 71 68 68 65 62 69

GFSSE_sfc_rhum_015.txt.gz
RH
92 85 75 72 76 75 81 83 84 85 84 84 84 82 79 78 78 78 77 76 75 74 74 74 74 73 73 72 72 74 74 72 71 68 68 71 72 74 72 75 71 68 74
86 82 77 76 77 80 82 82 83 82 82 82 82 80 77 78 79 78 76 76 75 74 73 73 73 73 72 73 71 72 73 72 73 68 66 71 72 72 73 70 70 69 70
84 83 79 80 78 80 82 82 80 79 80 80 79 78 77 77 77 76 76 75 74 73 73 73 72 73 72 71 70 72 72 70 71 69 69 85 78 69 73 70 70 74 73
81 88 82 83 81 80 81 81 80 78 79 79 78 78 77 77 76 75 74 74 73 72 71 72 73 72 71 73 72 70 68 72 70 66 78 74 68 72 72 73 73 73 72
83 88 90 80 82 79 79 80 81 81 78 78 78 77 77 76 75 74 73 73 73 72 72 72 71 72 75 71 66 67 78 78 77 80 77 85 82 71 72 73 70 73 74
84 86 80 78 77 78 78 78 78 78 77 78 76 75 75 74 73 73 72 72 71 71 71 71 71 71 74 66 67 71 80 78 74 84 85 82 82 71 72 71 73 73 76
90 86 80 82 81 78 77 77 76 76 79 78 76 75 75 73 71 71 70 70 69 69 70 69 70 72 71 70 72 70 70 65 83 85 88 87 82 76 73 73 72 75 74
84 86 81 79 80 80 75 76 76 74 77 78 76 74 75 73 71 70 69 68 68 68 69 69 70 73 69 70 80 77 74 68 73 84 88 92 86 78 74 71 72 72 69
79 86 82 79 75 76 78 76 75 74 76 77 76 75 75 74 72 69 67 67 66 66 68 68 68 70 70 72 71 79 76 75 88 94 85 92 86 75 71 72 73 75 71
83 86 89 86 77 84 85 75 74 75 75 76 74 74 74 73 72 69 74 69 66 64 66 67 66 69 70 70 70 72 77 72 88 86 94 90 85 70 69 73 74 74 73
85 92 92 92 94 96 93 80 76 75 75 75 75 74 79 89 87 81 76 69 69 67 65 66 67 70 70 69 72 70 72 93 82 90 91 85 82 71 68 72 74 75 75
91 93 92 96 95 97 81 91 93 87 89 90 90 91 94 92 92 85 79 69 66 68 67 69 69 69 75 80 75 60 67 82 78 82 80 82 79 74 70 71 74 75 75
88 88 91 95 95 96 89 98 99 98 98 98 95 95 95 93 96 96 96 90 87 79 89 82 82 78 78 76 72 58 74 86 86 86 81 84 80 73 74 75 76 75 76
86 84 88 92 94 96 96 97 98 96 98 99 98 95 98 98 95 94 91 94 92 96 88 90 91 78 80 68 65 64 72 87 93 89 88 82 82 76 68 75 72 75 77
84 81 86 88 91 91 95 97 99 98 95 91 93 92 94 98 98 95 92 96 95 95 95 94 90 86 76 70 70 63 62 66 86 87 90 77 79 79 76 71 73 74 75
78 80 81 84 86 88 90 96 95 96 92 89 89 88 89 95 96 95 94 94 94 94 88 86 92 76 75 73 68 74 60 60 76 84 88 90 78 78 79 77 73 70 75
74 74 78 81 82 85 83 89 91 91 83 86 78 79 81 91 92 90 95 95 93 95 92 90 80 84 74 63 63 65 64 67 62 71 80 87 85 75 77 77 76 71 69
70 72 73 69 77 81 81 89 82 84 81 79 80 88 83 89 90 94 97 95 95 93 95 92 93 89 72 66 72 75 70 70 61 58 69 77 84 78 77 74 79 79 76
64 68 73 73 76 79 82 88 85 85 88 78 86 84 91 90 90 96 96 94 92 96 91 89 93 88 76 77 72 76 74 72 66 59 64 64 77 86 86 76 79 80 74
59 63 69 71 76 79 82 88 93 92 87 88 88 92 92 88 90 95 92 93 91 96 95 92 86 87 81 84 70 66 77 75 70 69 70 75 83 77 75 80 89 86 79
60 66 69 70 74 79 86 92 95 88 94 95 92 86 90 90 92 92 94 94 93 95 92 87 88 80 81 91 74 85 84 76 70 67 72 80 83 86 84 90 95 96 91
62 67 72 70 73 76 75 76 80 94 95 90 91 88 88 90 92 91 93 95 95 97 93 92 83 88 91 91 82 94 90 82 67 62 72 75 83 85 83 88 92 94 92
60 69 73 72 71 74 73 77 97 97 97 97 96 94 89 86 88 91 92 95 96 97 96 90 83 82 84 92 86 85 94 93 93 75 64 70 73 80 83 84 91 95 94
58 65 69 71 71 72 76 76 76 80 79 84 94 95 88 87 85 88 91 94 96 98 94 87 82 86 86 83 95 84 89 90 88 87 83 76 71 64 74 77 73 77 95
52 63 68 72 72 71 76 72 75 75 75 93 96 92 94 95 90 88 92 94 95 97 94 87 89 91 90 84 90 92 92 94 87 93 83 76 77 74 69 66 76 72 88
50 60 66 74 75 73 77 75 76 76 85 94 96 90 94 98 97 92 90 92 93 92 91 88 90 89 95 92 95 95 88 81 87 86 91 89 80 71 76 72 70 73 73

GFSSE_sfc_rhum_021.txt.gz
RH
95 92 83 78 76 75 74 76 77 81 82 83 81 79 78 76 76 76 75 75 75 75 74 71 72 70 68 70 70 70 70 69 69 69 70 72 71 71 71 74 73 50 75
70 76 82 77 75 77 79 79 80 81 80 81 80 78 76 76 76 75 74 73 73 76 72 71 70 70 70 71 72 71 71 69 67 67 68 71 70 73 71 70 67 64 75
73 60 67 80 78 80 82 80 80 78 78 79 78 76 75 75 76 75 74 74 75 72 71 71 70 69 68 69 70 68 69 68 67 68 68 54 54 68 68 68 70 72 74
53 54 54 82 82 81 82 82 80 76 77 77 77 76 75 76 75 73 73 72 72 72 72 71 69 68 67 67 66 67 71 70 68 66 53 52 47 70 69 73 73 73 72
56 53 60 80 83 80 80 80 80 78 76 77 76 76 75 75 73 73 73 73 74 73 72 71 69 66 65 63 64 68 73 71 69 60 57 60 50 64 72 74 71 72 66
55 51 69 80 78 78 80 79 77 76 76 76 76 75 74 73 72 73 72 73 73 73 70 70 70 67 63 61 63 64 74 75 72 55 57 63 62 71 68 70 69 72 74
51 54 58 80 81 80 80 79 76 76 76 76 75 74 73 72 72 71 72 71 72 71 69 69 68 67 69 71 67 71 72 73 60 61 57 57 55 74 70 73 72 74 74
52 52 58 76 80 80 78 76 76 75 75 75 75 74 72 72 71 70 70 70 70 68 68 68 66 65 69 71 72 73 66 65 60 63 60 60 73 73 70 74 73 74 75
53 55 58 55 68 75 78 76 76 76 76 75 74 74 73 71 69 68 70 67 67 67 66 66 65 65 66 71 73 73 70 68 60 59 55 58 79 72 70 70 69 72 74
56 57 62 56 55 62 61 74 73 75 75 74 74 73 73 72 67 66 69 69 69 65 64 64 63 63 63 64 67 75 72 74 53 61 54 55 80 73 70 69 72 69 72
60 60 58 55 62 69 65 64 71 72 73 74 70 72 68 63 64 62 70 70 70 67 63 63 64 64 66 69 67 64 69 47 43 51 48 79 80 68 68 72 75 71 70
61 58 57 60 61 64 57 68 67 60 55 58 58 65 59 65 67 64 66 69 67 70 68 66 68 65 58 37 38 50 33 51 45 48 46 77 71 72 66 72 72 76 71
57 58 59 65 69 65 64 62 62 59 59 61 71 68 64 66 65 61 60 59 55 60 49 52 51 67 61 43 42 36 42 50 42 40 52 75 74 65 72 74 74 70 76
60 60 58 63 71 69 63 62 59 60 61 60 62 74 71 62 66 69 60 60 62 53 58 59 56 72 74 57 52 44 44 35 36 40 54 73 74 67 65 68 72 74 72
61 60 60 66 74 73 76 63 61 65 60 58 64 68 64 62 70 67 66 61 62 58 56 75 66 78 67 64 52 46 42 45 47 40 44 70 70 67 62 69 69 74 75
62 62 60 67 72 73 74 76 70 66 63 64 60 61 72 63 68 63 66 58 60 62 61 72 78 65 68 53 54 52 43 40 50 49 40 48 69 67 66 69 68 72 74
62 63 65 68 68 74 75 75 68 62 60 60 59 69 68 70 74 75 66 61 59 67 77 77 72 59 57 44 64 47 41 50 43 48 44 42 47 67 67 67 70 71 72
62 68 68 60 65 72 73 73 65 62 61 59 58 60 67 70 74 75 66 60 62 67 83 80 80 69 55 45 50 62 47 45 47 46 44 44 47 39 62 70 70 73 68
63 68 70 68 68 72 76 70 68 69 64 59 58 58 69 72 71 72 65 61 71 63 79 80 71 62 53 48 43 48 48 46 46 38 50 50 51 47 44 68 76 74 68
61 68 70 67 72 77 72 75 65 63 61 58 58 58 70 67 70 73 66 70 69 63 65 63 72 61 54 54 42 49 48 46 46 48 46 44 53 54 49 56 53 53 73
61 67 72 74 78 74 71 68 66 64 62 63 61 68 73 72 75 76 63 73 72 67 70 73 65 66 53 59 51 50 51 47 46 48 46 42 46 46 51 54 52 52 56
61 67 74 76 80 78 68 70 63 65 58 62 61 67 70 71 75 73 74 70 74 65 77 76 72 57 52 57 51 51 50 48 42 40 46 46 51 39 41 52 60 64 58
60 68 73 79 79 78 75 70 71 70 71 69 66 64 67 71 73 76 75 71 74 70 64 75 71 69 53 59 62 50 50 47 49 45 51 46 54 42 43 49 52 59 60
58 62 70 75 79 76 80 74 82 68 66 61 62 61 63 70 69 72 75 75 77 66 72 73 69 66 65 54 59 57 64 61 48 50 45 46 46 42 48 42 43 48 55
52 56 63 75 80 79 82 79 74 74 60 57 59 73 79 73 71 67 74 76 77 69 74 77 78 77 61 52 50 56 62 56 64 52 49 45 44 41 41 44 40 40 49
49 52 58 74 81 80 80 81 83 80 73 64 69 64 62 60 61 72 72 76 76 73 76 74 78 77 70 62 55 57 48 48 49 52 53 56 46 44 40 40 43 41 42

GFSSE_sfc_rhum_024.txt.gz
RH
94 88 77 76 75 76 71 73 77 80 81 79 77 76 77 76 76 75 75 74 73 73 72 72 70 68 70 69 70 70 68 69 68 69 71 69 69 71 72 69 69 44 75
89 84 83 76 76 74 73 74 78 79 79 77 78 76 75 76 75 74 73 74 72 72 71 70 69 69 70 70 70 70 69 68 66 66 70 70 72 71 70 69 67 61 75
69 75 62 80 77 75 76 78 78 77 77 77 76 75 75 75 74 74 75 74 72 71 71 70 70 68 68 69 69 72 69 67 69 66 64 50 45 66 66 71 75 75 74
50 49 47 82 81 78 79 79 77 75 76 76 76 74 75 75 73 72 71 70 72 72 71 70 68 67 66 65 65 67 68 68 66 66 65 35 36 68 69 68 72 72 74
51 48 54 81 83 80 78 78 78 76 76 76 75 74 74 74 72 71 72 70 71 72 71 69 67 64 62 62 63 68 69 68 66 57 48 59 51 61 73 74 74 73 64
41 40 69 80 78 79 78 77 76 75 76 75 74 74 73 72 72 71 73 66 69 70 69 69 66 66 62 61 62 68 71 71 69 40 44 52 51 71 70 67 70 69 69
38 40 51 81 80 80 78 76 76 75 75 75 74 73 72 71 72 71 71 70 70 69 68 66 66 67 66 67 68 68 73 68 46 46 44 62 54 70 70 71 72 72 73
37 38 48 77 80 80 78 76 75 74 75 75 73 72 72 71 70 70 70 69 67 66 66 65 65 66 67 69 72 65 70 58 48 46 46 46 72 69 72 74 72 73 74
38 35 44 47 63 75 79 74 74 74 74 74 73 72 71 70 68 68 69 67 66 64 63 64 64 65 66 68 72 68 65 61 50 58 44 42 76 72 72 72 72 74 74
41 35 42 44 45 54 54 74 74 74 74 73 72 72 70 68 66 66 67 69 64 63 62 62 61 61 61 64 65 70 71 68 40 48 39 50 76 72 68 71 66 75 72
41 37 36 36 45 52 51 58 70 74 73 72 69 70 69 42 47 51 68 68 63 62 61 61 59 60 62 67 63 63 71 32 31 35 44 80 77 70 68 73 70 70 68
42 38 34 38 41 45 38 54 54 46 41 42 42 51 44 49 51 51 61 68 64 63 63 63 61 61 63 26 31 53 25 34 34 33 41 74 69 67 66 70 75 71 68
40 38 37 42 47 45 45 44 43 41 40 45 54 51 49 49 49 41 42 44 42 60 50 53 55 36 61 35 38 31 28 31 29 28 57 73 68 68 68 71 72 73 70
42 41 39 43 51 48 43 42 39 38 39 39 42 57 55 48 49 52 41 44 49 39 44 42 47 43 45 57 43 32 30 25 25 26 54 71 71 64 65 67 72 69 72
40 41 41 47 57 55 56 42 38 41 39 37 43 49 45 46 59 51 52 44 47 40 39 56 47 44 54 46 41 34 28 32 31 26 34 66 67 62 61 66 70 73 70
41 42 42 48 56 56 56 58 50 46 41 42 39 40 56 49 55 46 49 44 43 42 47 49 54 57 50 40 41 35 31 30 36 34 29 45 65 64 62 69 67 73 72
40 42 45 50 52 60 61 60 54 44 41 40 39 49 54 57 61 70 48 46 43 61 55 51 51 46 42 34 47 37 31 34 31 35 30 32 47 67 64 67 68 70 72
42 49 49 43 48 56 58 57 49 43 42 39 37 40 54 58 64 63 59 50 45 55 48 46 47 46 39 36 37 35 32 31 34 34 31 32 32 36 62 65 68 71 70
46 52 55 54 51 56 62 56 54 53 46 39 37 38 54 59 60 61 64 50 58 51 50 48 51 50 42 37 32 34 33 32 32 30 37 35 38 33 35 68 67 68 67
44 51 56 53 59 62 57 62 50 44 45 41 40 40 51 56 58 61 51 56 52 48 58 64 59 48 43 34 27 34 34 33 32 32 32 29 37 37 37 46 50 58 66
44 52 58 61 66 61 57 55 50 45 45 43 41 50 56 58 61 66 52 55 53 56 64 62 58 59 42 40 38 36 38 37 35 32 29 28 32 31 36 38 43 53 50
45 52 61 64 68 67 56 56 47 46 40 42 42 52 56 57 63 62 75 65 58 62 68 65 71 45 43 38 38 37 39 38 32 30 32 31 33 26 31 37 44 49 43
44 53 59 66 67 68 62 55 55 50 48 46 46 48 53 58 60 66 64 64 68 58 76 67 64 61 43 42 49 40 39 37 36 36 41 33 40 31 34 38 38 44 44
42 47 56 63 68 66 69 61 71 53 51 45 48 44 46 58 58 58 62 64 71 51 61 71 56 58 62 45 42 40 51 51 37 42 37 37 36 34 37 32 34 38 42
39 43 50 63 71 69 71 68 59 63 48 44 43 58 67 62 60 54 60 65 66 69 62 67 66 71 53 46 36 42 49 41 47 40 46 39 38 34 33 35 31 31 39
36 41 47 64 76 73 71 72 73 71 63 49 53 47 47 47 49 60 57 62 64 63 64 64 69 70 66 56 38 42 38 38 37 38 37 44 37 36 33 32 36 32 32

GFSSE_sfc_rhum_027.txt.gz
RH
89 71 73 73 72 71 73 74 78 78 77 77 76 77 75 74 73 73 71 72 72 72 73 70 68 70 69 70 70 68 68 68 68 71 68 67 70 72 70 69 70 47 75
81 75 75 74 72 71 73 77 79 78 77 76 77 75 75 74 72 73 73 72 71 71 70 70 69 69 69 70 70 70 68 66 67 67 68 72 70 69 70 69 69 64 74
82 66 64 78 73 73 75 78 78 76 76 77 75 76 74 75 73 74 72 72 71 71 70 70 68 67 68 69 69 68 67 69 67 67 67 47 47 64 70 76 75 74 75
65 47 44 82 79 76 77 78 76 74 75 75 75 75 74 74 72 70 70 71 71 71 69 67 66 65 65 64 65 66 68 65 63 63 66 58 36 68 66 70 73 74 74
56 48 50 80 79 77 77 77 76 74 75 75 74 73 72 72 71 71 66 69 71 70 68 66 64 63 62 62 63 67 67 65 63 62 85 63 50 63 70 72 71 69 69
45 37 68 78 77 78 77 75 74 74 75 74 74 76 72 72 70 70 67 68 68 68 67 65 66 64 63 62 64 67 67 68 64 42 50 54 55 69 68 68 69 67 68
47 38 52 82 81 78 75 75 74 74 75 73 73 71 71 71 70 69 70 68 67 66 66 66 66 67 68 67 66 68 69 67 43 42 54 46 54 72 70 71 72 72 75
45 36 50 76 80 79 75 74 74 74 74 73 72 71 71 70 70 69 69 68 65 65 65 64 65 66 66 70 65 67 66 63 58 39 65 62 74 72 71 71 73 73 73
36 34 43 47 64 76 76 74 74 73 73 72 71 70 70 69 68 68 67 66 64 63 63 63 63 64 65 68 68 66 66 60 54 44 42 51 78 72 71 72 74 73 73
38 32 40 44 46 56 55 72 72 72 72 72 71 69 68 67 67 66 69 66 62 61 61 60 59 61 63 66 68 69 65 64 52 58 45 56 76 70 70 66 75 72 75
36 31 33 35 44 52 50 59 70 72 71 71 67 68 66 76 67 69 67 64 60 61 60 58 58 57 61 64 68 70 69 48 55 49 47 83 75 68 69 70 69 70 73
43 29 29 34 37 40 35 57 54 47 42 45 45 51 89 55 58 56 58 66 64 60 60 57 57 64 65 71 41 63 40 38 46 50 48 77 71 68 69 71 71 70 66
38 28 29 35 42 38 42 42 39 36 35 38 44 47 64 49 56 90 65 68 47 61 69 59 58 61 38 40 30 27 27 33 25 40 61 74 66 65 68 70 73 71 68
32 30 28 34 43 40 36 36 33 32 32 33 38 52 52 52 46 52 64 46 47 63 67 64 52 48 78 44 40 28 25 25 24 39 60 74 69 64 65 70 70 72 72
32 30 30 38 51 50 49 37 32 33 31 30 37 45 41 63 53 59 51 64 58 54 82 44 52 47 49 59 64 32 28 28 30 40 44 75 70 62 64 66 72 70 71
33 33 32 39 50 49 51 53 42 36 33 32 32 37 51 52 52 72 61 66 67 68 78 46 48 72 43 46 39 32 31 30 31 35 40 52 73 66 63 68 70 73 71
33 35 36 40 45 53 54 52 45 36 33 33 33 42 48 53 56 64 73 59 72 53 56 57 51 92 52 31 37 32 46 31 30 31 43 46 51 71 67 70 69 73 72
34 40 40 34 41 50 54 53 44 37 35 33 32 36 48 53 56 60 50 45 77 48 46 67 59 37 41 34 33 32 29 29 32 31 30 36 58 43 65 70 69 71 69
36 42 44 44 44 50 59 50 49 50 40 34 32 32 54 54 56 57 48 66 56 72 44 46 49 44 36 32 29 29 30 29 40 29 32 34 36 58 50 71 73 71 68
36 41 47 44 54 60 54 60 45 40 40 35 34 33 56 52 56 59 61 52 52 82 54 48 63 43 39 31 24 31 31 30 30 32 31 27 32 36 48 51 54 59 68
36 44 52 56 64 57 52 51 47 43 43 38 36 43 49 51 58 63 54 59 52 63 56 58 51 54 36 38 35 34 36 34 32 29 26 26 30 29 32 38 59 52 59
36 45 57 61 67 64 53 56 48 47 37 38 37 49 49 53 58 66 68 54 54 60 61 62 61 72 36 35 44 36 50 38 30 27 29 28 30 26 30 36 44 59 68
38 46 57 66 68 68 64 56 55 49 46 41 41 41 48 53 54 59 61 58 56 60 76 64 59 59 68 37 49 42 42 68 39 37 38 32 37 30 33 36 37 42 44
36 41 55 65 69 67 71 58 67 50 46 38 42 39 44 56 53 53 61 58 71 52 88 70 54 58 60 45 38 37 50 56 66 62 44 34 36 33 36 32 35 38 40
32 37 47 65 71 69 72 70 56 60 41 38 37 56 60 64 57 50 59 66 67 58 66 68 66 67 51 49 36 37 46 35 42 51 48 58 39 32 34 34 30 33 40
29 33 43 65 75 73 72 74 72 68 57 44 48 43 42 42 50 60 54 66 67 64 61 62 68 66 67 55 40 40 38 40 39 39 38 47 39 46 31 31 35 32 32

GFSSE_sfc_rhum_030.txt.gz
RH
77 67 77 73 76 78 78 81 81 81 81 81 81 79 79 80 79 78 78 77 77 76 73 71 72 70 71 71 70 69 68 70 72 69 67 71 73 73 72 67 69 64 77
70 68 76 74 74 77 79 82 82 81 81 81 79 79 78 77 78 78 77 74 76 74 71 71 71 71 71 71 71 69 68 67 69 68 71 68 68 73 72 71 71 73 76
69 64 69 78 76 77 80 82 80 80 80 79 76 76 75 75 74 76 75 75 74 72 71 70 69 69 69 68 69 68 68 69 69 67 67 61 61 72 71 76 75 76 77
57 50 54 81 79 78 81 81 79 76 76 77 75 76 76 76 76 74 73 72 72 71 69 68 67 66 66 66 67 67 67 64 65 66 79 62 45 68 73 75 76 77 76
53 44 64 81 81 79 80 80 79 78 77 76 74 74 73 73 73 71 72 72 71 70 68 67 65 64 63 64 67 65 66 64 63 62 73 70 64 67 72 71 71 71 72
48 42 74 78 77 78 80 79 78 77 75 75 74 74 73 72 71 70 70 70 70 69 68 68 67 66 65 65 67 65 65 68 64 73 63 67 72 70 70 70 68 68 71
43 53 58 82 80 80 79 78 77 75 74 74 76 73 72 71 71 72 70 69 69 69 68 69 69 69 68 68 67 65 66 66 64 70 59 68 76 76 72 72 72 74 70
48 45 60 79 81 80 77 77 76 74 73 73 73 72 72 72 72 71 70 68 68 67 67 67 67 66 69 66 69 68 66 66 59 65 67 73 80 76 71 73 73 73 73
39 45 59 63 72 76 78 77 74 74 73 72 71 71 70 69 69 69 70 69 66 65 64 64 64 64 64 68 66 69 65 66 60 72 60 73 82 74 73 74 74 73 73
35 45 56 58 58 66 66 74 73 72 71 70 70 69 69 67 65 64 74 71 65 63 61 60 60 60 63 68 67 66 64 70 87 71 65 75 81 73 69 74 73 75 75
38 41 44 46 59 67 66 66 71 71 70 70 69 69 77 79 78 69 69 68 63 61 58 57 57 58 70 71 73 71 67 81 66 62 65 84 79 70 70 70 72 74 76
44 36 38 45 51 56 44 72 71 61 59 64 64 72 93 89 82 69 62 71 64 58 60 59 63 69 71 75 60 73 64 59 60 59 70 83 78 70 72 72 72 68 75
38 34 37 47 56 51 59 62 57 54 54 62 81 83 97 92 84 81 67 65 69 70 62 72 67 59 64 61 53 52 49 51 52 52 71 80 78 72 70 73 74 70 67
41 35 34 44 56 53 56 51 49 47 58 49 56 74 89 94 93 78 78 71 74 73 82 76 73 69 64 63 56 57 37 42 52 57 74 79 76 71 70 72 74 73 70
41 33 38 49 62 66 67 51 46 56 43 54 58 64 87 89 85 72 74 70 81 95 96 89 73 76 75 63 62 52 41 44 51 56 68 79 76 74 69 71 72 72 72
42 36 39 50 60 62 65 69 67 58 51 53 51 58 66 81 83 73 74 70 76 79 96 85 82 81 77 66 67 49 45 45 50 59 60 75 77 74 73 70 73 71 71
33 37 46 51 53 64 67 66 64 56 43 48 56 67 60 68 73 74 78 86 86 84 72 77 83 83 79 56 53 51 48 48 45 50 54 59 70 75 73 75 75 77 72
35 44 48 36 50 59 65 67 63 54 52 55 53 60 63 64 69 77 77 84 91 83 77 73 73 79 74 60 58 55 58 49 45 48 57 55 62 57 73 77 76 78 73
40 49 51 49 55 61 70 64 63 63 59 56 54 56 70 69 68 76 75 77 81 91 86 68 72 75 62 55 52 52 57 54 48 38 48 59 64 61 63 78 79 79 70
41 51 54 50 64 69 65 72 60 57 58 57 58 57 71 69 69 75 73 76 74 86 76 74 77 68 66 60 33 48 55 52 56 54 47 46 64 64 62 74 81 74 75
42 52 57 62 72 67 66 66 64 60 61 60 60 64 73 70 73 80 84 90 83 87 80 71 71 70 63 60 65 65 65 51 49 51 46 47 50 53 56 70 75 71 74
44 55 62 65 72 70 66 70 63 64 57 57 60 66 66 67 78 77 81 80 79 83 80 78 79 84 67 62 73 69 72 65 54 43 55 46 51 48 49 65 68 78 80
46 55 64 69 74 72 70 69 71 70 69 61 60 62 63 67 70 80 80 80 80 85 85 82 79 79 81 64 67 78 75 72 69 60 54 56 52 60 58 58 63 76 75
42 51 64 69 74 73 74 70 76 65 61 59 61 60 62 67 69 69 77 78 81 86 85 85 76 79 81 75 66 59 71 75 82 72 66 64 59 49 59 62 59 57 67
38 47 59 71 75 76 75 77 68 70 60 56 57 70 73 75 71 65 76 78 82 79 87 86 82 82 82 77 71 69 69 71 69 74 75 73 65 63 61 58 57 62 62
36 44 54 73 78 77 78 76 80 75 69 59 62 60 64 66 68 72 70 78 82 79 84 86 84 84 84 83 76 73 70 71 70 72 72 69 71 67 62 61 58 64 61

GFSSE_sfc_rhum_033.txt.gz
RH
89 83 80 77 77 79 78 80 82 80 82 82 82 83 80 78 77 79 80 77 75 76 73 72 72 73 73 71 70 68 71 72 69 68 72 74 75 75 74 72 74 70 77
81 84 81 80 77 78 82 82 81 80 81 81 81 81 79 77 76 77 78 75 74 74 72 72 72 71 71 72 70 71 69 71 71 71 66 71 73 72 76 73 76 73 77
80 82 74 81 80 78 83 82 79 79 78 81 81 79 77 75 77 78 75 74 74 73 71 71 71 70 70 70 70 70 71 71 70 71 67 75 74 71 74 76 77 77 77
73 78 77 83 82 78 82 82 81 76 76 79 80 80 78 76 77 75 73 73 72 71 70 70 69 68 68 68 69 71 68 69 68 65 78 66 63 74 74 75 76 76 76
66 69 76 83 82 78 80 80 80 80 77 78 79 76 75 77 75 73 73 72 71 70 70 68 67 66 66 67 68 69 66 66 63 62 79 77 79 70 70 75 74 73 74
59 76 80 80 78 78 80 79 78 77 78 78 79 75 74 72 71 71 70 71 70 69 70 69 68 67 66 67 68 69 67 66 70 76 71 75 77 72 73 72 72 72 76
68 76 78 83 81 81 79 77 78 77 77 79 80 74 73 73 73 71 70 70 70 70 70 70 70 69 68 68 68 68 70 67 73 83 87 81 81 77 71 70 71 72 77
71 74 77 80 81 81 76 76 77 75 75 80 79 75 74 74 76 74 70 69 68 67 68 68 68 70 68 66 67 68 68 68 63 75 81 83 82 76 72 74 72 73 75
59 72 82 80 76 76 80 76 76 75 75 75 74 74 74 72 71 71 73 71 66 65 66 66 68 70 70 68 65 66 68 72 75 77 73 86 82 75 73 75 74 74 76
67 74 81 83 83 87 83 75 74 74 74 73 72 71 70 66 66 68 76 74 66 64 63 63 69 72 71 72 67 66 66 72 81 77 79 83 82 73 74 75 74 74 75
64 70 72 75 82 85 85 75 75 73 72 73 74 76 85 94 82 75 74 72 65 65 65 68 68 73 70 68 71 68 64 79 78 74 81 86 81 69 73 73 76 76 76
64 64 63 67 74 76 64 84 87 79 84 83 83 81 92 91 91 81 72 72 67 68 68 71 70 70 73 80 72 71 84 76 73 75 85 86 79 72 71 72 72 78 77
54 55 57 62 69 69 74 87 90 84 83 84 75 92 93 93 92 95 86 81 77 67 70 76 73 72 69 74 67 64 76 66 69 66 80 85 79 73 73 74 70 70 76
49 49 52 58 63 69 72 77 75 74 75 81 83 87 96 96 92 89 94 84 82 88 88 87 88 81 77 67 64 56 62 55 61 75 88 84 82 74 73 74 74 69 68
47 45 50 56 63 69 67 68 70 67 66 66 79 83 96 93 95 92 89 91 89 94 84 79 89 74 77 66 63 53 53 54 59 74 91 79 81 78 74 73 74 74 73
45 43 49 56 67 61 59 70 67 61 59 61 68 80 84 92 95 92 92 96 92 93 91 91 88 80 67 75 68 45 51 59 62 71 82 85 80 80 76 74 73 73 73
46 44 51 52 63 63 67 71 64 71 52 62 60 76 78 79 84 75 95 90 94 95 90 92 88 81 67 64 66 47 50 58 64 66 66 77 78 76 79 77 79 78 75
45 48 52 44 62 74 72 74 72 66 64 65 62 74 71 73 77 92 88 87 88 84 86 89 82 79 81 73 64 56 47 45 61 60 66 71 74 69 79 79 80 82 74
47 55 54 52 61 76 76 78 73 72 72 66 63 71 72 73 76 87 94 91 89 89 86 80 81 78 75 71 54 65 60 51 47 56 63 65 73 72 80 83 81 82 74
52 50 52 57 60 72 78 84 76 76 78 73 70 72 77 80 77 83 92 94 90 84 88 83 75 70 65 60 43 55 60 56 54 54 61 59 69 65 80 86 90 84 80
51 53 58 65 68 66 77 79 79 75 81 73 70 75 80 82 80 86 92 92 91 87 90 78 78 78 64 69 70 68 65 54 51 59 60 74 68 65 76 87 87 82 82
53 56 59 70 71 66 69 66 81 83 79 71 69 82 77 81 85 86 88 90 90 93 87 82 84 89 78 66 79 68 68 64 62 57 57 58 70 68 71 76 78 84 88
55 57 64 65 73 68 71 72 83 84 80 78 75 83 81 79 84 86 86 89 92 92 94 88 86 88 83 74 72 81 78 74 75 60 61 53 64 68 77 79 80 80 86
54 55 61 65 78 70 76 71 69 64 70 81 72 77 78 79 80 84 84 87 88 92 87 91 86 87 86 70 72 65 79 79 82 74 72 64 63 57 67 79 78 81 72
50 57 60 66 76 70 72 69 74 75 83 76 74 75 81 82 82 79 84 87 87 95 89 87 89 89 92 83 70 73 75 77 77 83 79 69 71 68 68 64 66 74 67
48 57 65 69 78 73 72 81 76 79 76 81 80 75 86 75 80 83 82 84 89 90 93 90 90 91 87 91 84 80 67 69 74 75 81 82 70 71 64 64 63 69 66